Flag for France Weather past 2 weeks in Nîmes, France

Now
72 °F

Passing clouds.


Feels Like: 72 °F
Forecast: 63 / 83 °F
Wind: 10 mph from East

Location: Nimes / Garons

Current Time: Sep 20, 2014 at 5:04:33 AM

Latest Report: Sep 20, 2014 at 4:30 AM


Visibility: N/A

Pressure: 29.95 "Hg

Humidity: 78%

Dew point: 64 °F

Location of NîmesLocation

Historic Weather in Nîmes — Graph

°F

Nîmes temperature yesterday

Maximum temperature yesterday: 79 °F (at 3:30 PM)
Minimum temperature yesterday: 68 °F (at 5:30 AM)
Average temperature yesterday: 72 °F

Past Weeks' High & Low Weather Summary

 TemperatureHumidityPressure
High90 °F (Sep 10, 3:30 PM)94% (Sep 15, 9:00 AM)30.04 "Hg (Sep 15, 9:00 AM)
Low59 °F (Sep 16, 6:00 AM)21% (Sep 11, 4:30 PM)29.80 "Hg (Sep 10, 5:30 PM)
Average72 °F62%29.92 "Hg
* Reported Sep 5 3:00 AM — Sep 20 3:00 AM, Nîmes, Weather by CustomWeather, © 2014

Note: Actual official high and low records may vary slightly from our data, if they occured in-between our weather recording intervals... More about our weather records

Advertising

Nîmes weather history for previous 24 hours

 ConditionsComfort  
Time TempWeatherWind HumidityBarometerVisibility
3:00 AM
Sep 20
72 °FOvercast.7 mph83%29.95 "Hg4 mi
2:30 AM72 °FOvercast.12 mph83%29.95 "Hg5 mi
2:00 AM72 °FOvercast.12 mph83%29.98 "Hg6 mi
1:30 AM72 °FOvercast.16 mph83%29.95 "Hg6 mi
1:00 AM72 °FMostly cloudy.15 mph83%29.95 "Hg5 mi
12:30 AM72 °FPassing clouds.14 mph83%29.95 "Hg6 mi
12:00 AM72 °FOvercast.15 mph83%29.98 "HgN/A
11:30 PM
Sep 19
72 °FOvercast.13 mph83%29.98 "HgN/A
11:00 PM72 °FMostly cloudy.14 mph83%29.98 "HgN/A
10:30 PM72 °FOvercast.10 mph83%29.98 "HgN/A
10:00 PM72 °FMostly cloudy.9 mph83%29.98 "Hg6 mi
9:30 PM72 °FPassing clouds.10 mph83%29.98 "Hg6 mi
9:00 PM72 °FPassing clouds.13 mph83%29.95 "Hg6 mi
8:30 PM72 °FPartly sunny.14 mph83%29.95 "Hg6 mi
8:00 PM73 °FMore clouds than sun.15 mph78%29.95 "HgN/A
7:30 PM73 °FPartly sunny.16 mph78%29.95 "HgN/A
7:00 PM73 °FPassing clouds.15 mph78%29.95 "HgN/A
6:30 PM75 °FPassing clouds.16 mph74%29.92 "HgN/A
6:00 PM77 °FPartly sunny.15 mph65%29.92 "HgN/A
5:30 PM77 °FOvercast.14 mph65%29.92 "HgN/A
5:00 PM79 °FPartly sunny.16 mph61%29.92 "HgN/A
4:30 PM79 °FOvercast.14 mph61%29.92 "HgN/A
4:00 PM77 °FMostly cloudy.15 mph65%29.92 "HgN/A
3:30 PM79 °FPartly sunny.16 mph61%29.92 "HgN/A
3:00 PM77 °FBroken clouds.17 mph65%29.92 "HgN/A
2:30 PM77 °FPartly sunny.15 mph65%29.92 "HgN/A
2:00 PM77 °FPartly sunny.16 mph65%29.92 "HgN/A
1:30 PM77 °FPartly sunny.14 mph65%29.92 "HgN/A
1:00 PM77 °FScattered clouds.14 mph65%29.92 "HgN/A
12:30 PM75 °FPartly sunny.12 mph69%29.95 "HgN/A
12:00 PM77 °FBroken clouds.12 mph61%29.95 "HgN/A
11:30 AM75 °FPassing clouds.6 mph69%29.95 "HgN/A
11:00 AM73 °FScattered clouds.6 mph74%29.92 "HgN/A
10:30 AM70 °FMostly cloudy.3 mph78%29.95 "HgN/A
10:00 AM68 °FClear.3 mph78%29.92 "Hg6 mi
9:30 AM68 °FClear.7 mph78%29.92 "Hg5 mi
9:00 AM68 °FClear.No wind78%29.92 "HgN/A
8:30 AM68 °FPassing clouds.10 mph83%29.89 "HgN/A
8:00 AM68 °FMild.12 mph83%29.89 "Hg4 mi
7:30 AM68 °FFog.10 mph83%29.86 "Hg2 mi
7:00 AM70 °FThundershowers. Partly cloudy.10 mph78%29.86 "HgN/A
6:30 AM70 °FThundershowers. Partly cloudy.12 mph78%29.86 "HgN/A
6:00 AM68 °FPassing clouds.9 mph78%29.89 "HgN/A
5:30 AM68 °FPartly cloudy.10 mph78%29.86 "Hg5 mi
5:00 AM70 °FPassing clouds.12 mph73%29.89 "HgN/A
Weather by CustomWeather, © 2014

See weather overviewHow to use our weather pages